[[{"header":{"parameterUnit":"m.s-1","parameterCategory":2,"la1":30.2991,"la2":30.254,"lo1":-89.0895,"lo2":-89.0444,"dy":0.0017,"dx":0.0017,"nx":28,"ny":28,"refTime":"2024-03-10T03:00:00:Z","depth":"0","parameterNumber":2,"parameterNumberName":"U-component_of_CURRENTS"},"data":[0,0,0,0,0,0,0,0,0,0,0,0,0,0,0,0,0,0,0,0,0,0,0,0,0,0,0,0,0,0,0,0,0,0,0,0,0,0,0,0,0,0,0,0,0,0,0,0,0,0,0,0,0,0,0,0,0,0,0.2838,0.2839,0,0.2926,0.2928,0.2929,0.2959,0.2958,0.2958,0.2957,0.2972,0.2972,0.2973,0,0,0,0,0,0,0,0,0,0,0,0,0,0.2786,0.2786,0.2838,0.2839,0.284,0.2926,0.2928,0.2929,0.2959,0.2958,0.2957,0.2957,0.2971,0.2972,0.2973,0,0,0,0,0,0,0,0,0,0,0,0,0,0.2836,0.2786,0.2838,0.2864,0.2867,0.2926,0.2928,0.2929,0.2959,0.2958,0.2957,0.2957,0.2971,0.2972,0.2974,0.2996,0,0,0.2977,0.2978,0,0,0,0,0,0,0,0,0.2833,0.2838,0.2859,0.2862,0.2866,0.293,0.2915,0.2947,0.2959,0.2925,0.2957,0.2956,0.295,0.2953,0.2975,0.2997,0.2997,0.2977,0.2978,0.2979,0.2979,0,0,0,0,0,0,0,0.2829,0.2835,0.2874,0.286,0.2864,0.2903,0.2908,0.2922,0.294,0.2928,0.293,0.2938,0.2952,0.2973,0.2975,0.2997,0.2977,0.2979,0.2979,0.298,0.3025,0.3025,0,0,0,0,0,0,0.2812,0.2831,0.2871,0.2877,0.2846,0.2904,0.291,0.2911,0.2942,0.2946,0.2939,0.2939,0.2972,0.2973,0.2975,0.3015,0.2979,0.298,0.2981,0.3024,0.3025,0.3025,0,0,0,0,0,0,0.281,0.2814,0.2868,0.2855,0.2865,0.2905,0.2906,0.2913,0.2937,0.2951,0.2954,0.2955,0.2971,0.2974,0.3001,0.3015,0.2981,0.2982,0.3024,0.3025,0.3025,0.3085,0,0,0,0,0,0,0.2808,0.2813,0.2812,0.2854,0.2865,0.2905,0.2907,0.2915,0.2942,0.2944,0.2966,0.2966,0.2971,0.3,0.3003,0.3016,0.2983,0.3023,0.3024,0.3025,0.3083,0.3088,0.3093,0,0,0,0,0,0.2806,0.2807,0.2811,0.2816,0.286,0.2906,0.2916,0.2943,0.2944,0.2961,0.298,0.2966,0.3006,0.3002,0.3005,0.3019,0.3023,0.3024,0.3025,0.3081,0.3087,0.3092,0,0,0,0,0,0,0.2787,0.2811,0.2816,0.2825,0.2862,0.291,0.2929,0.2947,0.2978,0.2978,0.2986,0.2989,0.3018,0.3007,0.3002,0.3031,0.3006,0.3008,0.3047,0.3053,0.3058,0.3071,0.2984,0,0,0,0,0,0.278,0.2784,0.2821,0.283,0.2848,0.2889,0.2911,0.2933,0.2965,0.2979,0.2996,0.3007,0.3026,0.303,0.3046,0.3066,0.307,0.307,0.3075,0.3079,0.3091,0.3101,0.3108,0.3029,0.3029,0.3029,0,0,0.2774,0.279,0.2791,0.2827,0.2857,0.2888,0.2901,0.294,0.2971,0.2974,0.3019,0.3033,0.3037,0.3068,0.3076,0.3058,0.3109,0.3081,0.3085,0.3094,0.3103,0.3111,0.3118,0.3029,0.3029,0.3029,0,0,0.2768,0.2781,0.2783,0.2814,0.2858,0.2893,0.2903,0.2956,0.2986,0.3034,0.3041,0.3069,0.3094,0.3108,0.3114,0.3151,0.314,0.314,0.3172,0.3183,0.319,0.3196,0.3235,0.3244,0.3135,0.3135,0.3135,0,0.2759,0.277,0.2795,0.2813,0.2841,0.2892,0.2916,0.2961,0.3018,0.3042,0.3051,0.3106,0.3117,0.3148,0.317,0.3164,0.3174,0.3154,0.3191,0.3197,0.3202,0.324,0.3249,0.3138,0.3137,0.3137,0.3137,0,0.2757,0.2772,0.2783,0.2818,0.2852,0.2889,0.2947,0.2988,0.3032,0.3072,0.3126,0.3159,0.3182,0.3192,0.3204,0.3239,0.3238,0.3204,0.3181,0.3214,0.3252,0.326,0.3142,0.3141,0.314,0.3139,0,0,0.2713,0.2771,0.2771,0.2797,0.2862,0.2894,0.2949,0.3016,0.3061,0.3115,0.3166,0.3217,0.3233,0.3241,0.325,0.3275,0.3342,0.3263,0.3263,0.3311,0.339,0.3365,0.3372,0.3311,0.3313,0.3314,0.341,0,0.2707,0.2744,0.2772,0.2818,0.285,0.2909,0.2959,0.3021,0.3094,0.3159,0.3196,0.3253,0.3249,0.3276,0.3297,0.3335,0.3364,0.3321,0.3342,0.3344,0.3324,0.338,0.3238,0.3309,0.3418,0.342,0.3421,0,0.2682,0.2722,0.2759,0.2834,0.2852,0.2881,0.2977,0.3035,0.3127,0.3185,0.3235,0.3273,0.3331,0.3321,0.3389,0.336,0.3384,0.3411,0.3413,0.3374,0.3334,0.3287,0.332,0.3249,0.3434,0.3433,0.3432,0,0.2642,0.2705,0.2742,0.2766,0.2856,0.2878,0.2933,0.3029,0.3086,0.3205,0.3247,0.3317,0.335,0.3391,0.3446,0.3422,0.3524,0.3484,0.3484,0.3484,0.336,0.3346,0.333,0.3528,0.3528,0.3528,0.3527,0,0.2619,0.2641,0.2723,0.2743,0.2792,0.2857,0.2921,0.2999,0.3094,0.3159,0.3244,0.3304,0.3368,0.3425,0.3469,0.3515,0.3531,0.3516,0.3508,0.3379,0.3366,0.3293,0.3262,0.3531,0.353,0.353,0.3529,0,0.255,0.2605,0.2652,0.2745,0.2768,0.2802,0.2893,0.2944,0.3048,0.3132,0.3165,0.3291,0.3392,0.3455,0.3549,0.3532,0.3499,0.3599,0.3465,0.3439,0.3354,0.3332,0.3203,0.3108,0.3619,0.3619,0.3619,0,0.2512,0.2533,0.2634,0.2659,0.2692,0.2751,0.2787,0.2907,0.2967,0.3126,0.3155,0.3282,0.3369,0.3504,0.3534,0.3607,0.3505,0.3496,0.3418,0.3354,0.3324,0.3192,0.3111,0.3292,0.3289,0.3287,0.3285,0,0.2447,0.2487,0.2535,0.2593,0.2629,0.268,0.2746,0.2783,0.2924,0.2995,0.3109,0.3195,0.3341,0.337,0.3466,0.3485,0.3323,0.3453,0.3399,0.3091,0.2929,0.2831,0.3255,0.3265,0.3267,0.3269,0.327,0.3271,0.2385,0.2409,0.2474,0.2517,0.2559,0.2591,0.2594,0.268,0.2751,0.2836,0.2992,0.3066,0.3184,0.3313,0.3314,0.3223,0.3214,0.3128,0.3121,0.3006,0.2854,0.3262,0.3248,0.325,0.3251,0.3252,0.3254,0,0.2299,0.2345,0.239,0.2433,0.2432,0.2491,0.2543,0.2528,0.2565,0.2704,0.2784,0.288,0.2936,0.3012,0.3016,0.2912,0.2747,0.283,0.2601,0.2549,0.2928,0.2854,0.2734,0.2734,0.2734,0.2734,0.2734,0.2735,0.2259,0.2269,0.2308,0.2287,0.2309,0.2266,0.2271,0.2281,0.2352,0.2399,0.2452,0.2557,0.2734,0.2822,0.2756,0.268,0.2473,0.2346,0.2361,0.2636,0.2662,0.2687,0.2609,0.244,0.244,0.1842,0.1838,0.1835]},{"header":{"parameterUnit":"m.s-1","parameterCategory":2,"la1":30.2991,"la2":30.254,"lo1":-89.0895,"lo2":-89.0444,"dy":0.0017,"dx":0.0017,"nx":28,"ny":28,"refTime":"2024-03-10T03:00:00:Z","depth":"0","parameterNumber":3,"parameterNumberName":"V-component_of_CURRENTS"},"data":[0,0,0,0,0,0,0,0,0,0,0,0,0,0,0,0,0,0,0,0,0,0,0,0,0,0,0,0,0,0,0,0,0,0,0,0,0,0,0,0,0,0,0,0,0,0,0,0,0,0,0,0,0,0,0,0,0,0,0.0107,0.0106,0,-0.0004,-0.0006,-0.0008,-0.0084,-0.0084,-0.0084,-0.0084,-0.0305,-0.0311,-0.0317,0,0,0,0,0,0,0,0,0,0,0,0,0,0.0166,0.0165,0.0107,0.0106,0.0106,-0.0004,-0.0006,-0.0008,-0.0084,-0.0084,-0.0084,-0.0084,-0.0303,-0.031,-0.0317,0,0,0,0,0,0,0,0,0,0,0,0,0,0.0101,0.0165,0.0107,0.0059,0.0054,-0.0004,-0.0006,-0.0009,-0.0084,-0.0084,-0.0084,-0.0084,-0.0301,-0.0309,-0.0318,-0.0372,0,0,-0.0345,-0.0349,0,0,0,0,0,0,0,0,0.0105,0.0098,0.0067,0.0062,0.0057,-0.0025,-0.0066,-0.0134,-0.0084,-0.0038,-0.0084,-0.0084,-0.0218,-0.0233,-0.0261,-0.0382,-0.0392,-0.0346,-0.0351,-0.0355,-0.0357,0,0,0,0,0,0,0,0.0109,0.0102,0.0057,0.0066,0.006,0.0013,0.0004,-0.008,-0.0133,-0.0042,-0.0046,-0.0049,-0.0222,-0.0252,-0.0267,-0.0395,-0.0346,-0.0353,-0.0359,-0.0362,-0.0532,-0.0531,0,0,0,0,0,0,0.0139,0.0107,0.0061,0.0055,0.0088,0.0013,0.0002,-0.0004,-0.013,-0.0146,-0.0049,-0.0052,-0.0237,-0.0257,-0.0275,-0.031,-0.0355,-0.0363,-0.0368,-0.0532,-0.0531,-0.0531,0,0,0,0,0,0,0.0141,0.0136,0.0065,0.0083,0.0071,0.0013,0.0006,-0.0006,-0.0026,-0.0133,-0.0153,-0.0055,-0.0238,-0.0263,-0.0327,-0.032,-0.0367,-0.0375,-0.0533,-0.0532,-0.0531,-0.0403,0,0,0,0,0,0,0.0143,0.0137,0.0138,0.0085,0.0072,0.0045,0.0007,-0.0008,-0.0026,-0.0031,-0.0145,-0.0166,-0.024,-0.0313,-0.0336,-0.0333,-0.0382,-0.0534,-0.0533,-0.0531,-0.0408,-0.0398,-0.0389,0,0,0,0,0,0.0145,0.0151,0.0139,0.0133,0.0076,0.0046,0.0034,-0.0012,-0.0026,-0.0032,-0.0098,-0.0162,-0.032,-0.032,-0.0347,-0.0346,-0.0535,-0.0533,-0.0532,-0.0413,-0.04,-0.0389,0,0,0,0,0,0,0.0174,0.0142,0.0128,0.0123,0.0095,0.0036,0.0026,0.0,-0.0058,-0.0063,-0.016,-0.0186,-0.0239,-0.0308,-0.0305,-0.0388,-0.0436,-0.0439,-0.0336,-0.0325,-0.0316,-0.0281,-0.0389,0,0,0,0,0,0.0184,0.0181,0.0144,0.0141,0.0133,0.0084,0.0065,0.0039,-0.0013,-0.0038,-0.0113,-0.019,-0.0255,-0.0298,-0.0371,-0.0424,-0.045,-0.0438,-0.0428,-0.0419,-0.0408,-0.0426,-0.0416,-0.0525,-0.0525,-0.0525,0,0,0.0194,0.0179,0.0175,0.0148,0.0121,0.0114,0.0071,0.0055,0.0046,-0.0056,-0.0097,-0.0163,-0.026,-0.031,-0.0341,-0.0367,-0.0398,-0.0417,-0.0409,-0.0403,-0.0423,-0.0412,-0.0403,-0.0524,-0.0524,-0.0524,0,0,0.0222,0.0203,0.0212,0.0195,0.0172,0.0142,0.0148,0.0098,0.0073,0.003,-0.0036,-0.0083,-0.02,-0.0254,-0.0299,-0.028,-0.0342,-0.0309,-0.0241,-0.0258,-0.0248,-0.0241,-0.0236,-0.0229,-0.0308,-0.0307,-0.0307,0,0.0237,0.0241,0.0209,0.0216,0.0211,0.0165,0.0176,0.0142,0.0078,0.0067,0.0034,-0.0085,-0.0169,-0.0214,-0.0207,-0.0257,-0.0268,-0.0277,-0.0242,-0.0235,-0.0229,-0.0227,-0.0221,-0.0301,-0.0302,-0.0302,-0.0303,0,0.027,0.0273,0.0279,0.0274,0.0263,0.0265,0.0229,0.0213,0.0181,0.0149,0.0107,0.001,-0.0055,-0.009,-0.015,-0.0153,-0.0172,-0.0221,-0.0264,-0.021,-0.0211,-0.0207,-0.0292,-0.0294,-0.0296,-0.0298,0,0,0.0306,0.0304,0.0306,0.0318,0.0297,0.0295,0.029,0.0274,0.0286,0.0221,0.0226,0.0123,0.0089,0.0038,-0.0036,-0.0058,-0.0027,-0.0114,-0.0118,-0.0094,-0.0039,-0.0044,-0.0041,-0.0066,-0.0065,-0.0064,-0.0046,0,0.0343,0.0373,0.0359,0.0387,0.0401,0.037,0.0371,0.0353,0.0329,0.032,0.0244,0.0209,0.0132,0.0107,0.008,-0.0008,-0.0014,-0.0026,-0.0109,-0.011,-0.011,-0.0036,-0.0032,-0.0015,-0.0043,-0.0042,-0.0042,0,0.0383,0.0397,0.0435,0.0452,0.0457,0.0468,0.0482,0.0478,0.0456,0.0438,0.0409,0.0345,0.0299,0.0225,0.0143,0.0142,0.0072,0.0009,0.0007,-0.0041,-0.0108,-0.0082,-0.0007,-0.0161,-0.0036,-0.0036,-0.0037,0,0.043,0.0453,0.0488,0.0492,0.0501,0.052,0.0527,0.0521,0.0536,0.0521,0.053,0.0466,0.0437,0.0347,0.0219,0.0184,0.0141,0.0068,0.0006,0.0005,-0.003,-0.0035,-0.0104,0.003,0.003,0.003,0.003,0,0.0475,0.0503,0.0516,0.0536,0.0588,0.0577,0.0633,0.0629,0.0643,0.0689,0.0601,0.062,0.0466,0.0411,0.0285,0.0182,0.0196,0.0046,0.0016,0.0016,0.0015,-0.0155,-0.025,0.0031,0.0031,0.0031,0.003,0,0.0519,0.0525,0.057,0.0597,0.0613,0.0652,0.0704,0.0743,0.0745,0.0805,0.0804,0.0749,0.0689,0.0543,0.0408,0.0276,0.008,0.0118,0.0144,0.0116,-0.0106,-0.0193,-0.0284,-0.0354,0.0053,0.0053,0.0054,0,0.0542,0.057,0.062,0.0657,0.0675,0.0731,0.0773,0.0794,0.0846,0.0894,0.093,0.089,0.0898,0.0705,0.047,0.0285,0.0116,0.0136,0.0054,-0.0088,-0.0209,-0.0273,-0.033,0.0067,0.0067,0.0067,0.0067,0,0.0589,0.0608,0.0646,0.0721,0.0776,0.0841,0.0909,0.0969,0.1015,0.1082,0.1168,0.1184,0.1003,0.0818,0.0541,0.0386,0.0026,0.0132,-0.0029,-0.0201,-0.0261,-0.0352,0.0034,0.0068,0.0068,0.0068,0.0068,0.0068,0.0627,0.0663,0.0717,0.0791,0.0859,0.0952,0.1026,0.1119,0.1238,0.1367,0.1366,0.1435,0.1123,0.0752,0.051,0.0049,0.0037,-0.011,-0.0198,-0.0244,-0.033,0.0077,0.0075,0.0075,0.0075,0.0075,0.0075,0,0.0666,0.0711,0.0783,0.0876,0.0962,0.0987,0.1116,0.121,0.1382,0.1522,0.1626,0.1535,0.1146,0.0721,0.0104,-0.0226,-0.0358,-0.0411,-0.0517,-0.0558,-0.0204,-0.0225,-0.0274,-0.0274,-0.0274,-0.0274,-0.0274,-0.0274,0.069,0.0761,0.0799,0.0948,0.1019,0.1145,0.1228,0.1385,0.1518,0.1713,0.1784,0.1809,0.1477,0.0378,-0.0388,-0.0567,-0.0797,-0.0841,-0.0961,-0.0752,-0.0731,-0.0712,-0.0754,-0.0914,-0.0914,-0.1276,-0.128,-0.1283]}],[{"header":{"parameterUnit":"m.s-1","parameterCategory":2,"la1":30.2991,"la2":30.254,"lo1":-89.0895,"lo2":-89.0444,"dy":0.0017,"dx":0.0017,"nx":28,"ny":28,"refTime":"2024-03-10T03:00:00:Z","depth":"2","parameterNumber":2,"parameterNumberName":"U-component_of_CURRENTS"},"data":[0,0,0,0,0,0,0,0,0,0,0,0,0,0,0,0,0,0,0,0,0,0,0,0,0,0,0,0,0,0,0,0,0,0,0,0,0,0,0,0,0,0,0,0,0,0,0,0,0,0,0,0,0,0,0,0,0,0,0.2255,0.2255,0,0.2305,0.2305,0.2305,0.2331,0.2331,0.2332,0.2332,0.2495,0.2499,0.2503,0,0,0,0,0,0,0,0,0,0,0,0,0,0.2186,0.2187,0.2254,0.2255,0.2256,0.2304,0.2305,0.2306,0.2331,0.2331,0.2332,0.2332,0.2493,0.2498,0.2503,0,0,0,0,0,0,0,0,0,0,0,0,0,0.2223,0.2188,0.2254,0.2276,0.2278,0.2304,0.2305,0.2306,0.2331,0.2331,0.2332,0.2332,0.2492,0.2498,0.2504,0.2538,0,0,0.2523,0.2526,0,0,0,0,0,0,0,0,0.2221,0.2225,0.2272,0.2274,0.2277,0.2313,0.2341,0.239,0.2331,0.231,0.2332,0.2332,0.2445,0.2455,0.2461,0.2546,0.2553,0.2524,0.2528,0.253,0.2532,0,0,0,0,0,0,0,0.2218,0.2223,0.2273,0.2272,0.2276,0.2285,0.229,0.235,0.2377,0.2312,0.2314,0.2321,0.2447,0.2454,0.2465,0.2555,0.2524,0.2529,0.2533,0.2536,0.2745,0.2746,0,0,0,0,0,0,0.2214,0.2221,0.2271,0.2275,0.225,0.2286,0.2291,0.23,0.2374,0.2384,0.2321,0.2323,0.2444,0.2458,0.2471,0.2562,0.253,0.2536,0.254,0.2743,0.2745,0.2747,0,0,0,0,0,0,0.2213,0.2218,0.2269,0.225,0.2257,0.2287,0.2296,0.2301,0.2317,0.238,0.2393,0.2333,0.2444,0.2462,0.2525,0.2567,0.2539,0.2545,0.2741,0.2744,0.2746,0.2716,0,0,0,0,0,0,0.221,0.2217,0.2227,0.225,0.2258,0.2288,0.2296,0.2302,0.2322,0.2324,0.2395,0.2409,0.2446,0.2515,0.2531,0.2576,0.255,0.2738,0.2742,0.2745,0.2715,0.2718,0.272,0,0,0,0,0,0.2208,0.2218,0.2227,0.2233,0.2269,0.2288,0.2294,0.2314,0.2322,0.2329,0.2374,0.2407,0.2549,0.2521,0.254,0.2587,0.2737,0.2741,0.2745,0.2714,0.2717,0.272,0,0,0,0,0,0,0.2192,0.2222,0.2233,0.2251,0.227,0.2293,0.2306,0.2318,0.2356,0.2367,0.2418,0.2436,0.2502,0.2553,0.252,0.2659,0.2655,0.2662,0.2625,0.2629,0.2631,0.2605,0.2555,0,0,0,0,0,0.2193,0.2209,0.2235,0.2249,0.2261,0.2284,0.2297,0.2312,0.2346,0.2362,0.2414,0.2479,0.2533,0.2583,0.2632,0.2713,0.2725,0.2761,0.2764,0.2765,0.2759,0.2797,0.2801,0.276,0.276,0.276,0,0,0.2189,0.2209,0.2218,0.2247,0.2265,0.2284,0.2292,0.2316,0.2338,0.2379,0.2434,0.2477,0.2549,0.2622,0.2663,0.2675,0.2785,0.277,0.2771,0.2764,0.2802,0.2805,0.2809,0.2763,0.2762,0.2762,0,0,0.2188,0.2209,0.2223,0.224,0.2272,0.229,0.2297,0.2333,0.2355,0.2403,0.244,0.2497,0.2595,0.2649,0.2689,0.2741,0.2775,0.2783,0.28,0.2837,0.284,0.2843,0.2855,0.2859,0.2809,0.2809,0.2809,0,0.2186,0.2206,0.2228,0.2247,0.2267,0.2292,0.2312,0.2336,0.2389,0.2422,0.2421,0.2552,0.2601,0.2696,0.2711,0.2744,0.2765,0.2777,0.2836,0.2839,0.2842,0.2855,0.2859,0.2808,0.2808,0.2808,0.2808,0,0.2193,0.2214,0.2223,0.2258,0.2281,0.2302,0.2339,0.2374,0.2405,0.2436,0.2516,0.2571,0.2659,0.269,0.2713,0.2789,0.2794,0.2809,0.2816,0.2844,0.2856,0.2861,0.2806,0.2807,0.2807,0.2807,0,0,0.2173,0.2222,0.2222,0.2243,0.2292,0.2308,0.2358,0.2412,0.2455,0.2502,0.2558,0.2638,0.2674,0.2721,0.2775,0.2809,0.2835,0.2825,0.2827,0.2814,0.2906,0.283,0.2828,0.2865,0.2867,0.2867,0.2902,0,0.2173,0.2206,0.2235,0.2267,0.2291,0.2338,0.2381,0.2436,0.2489,0.2549,0.2607,0.2675,0.269,0.2741,0.2776,0.2824,0.285,0.2823,0.2902,0.2904,0.2814,0.2832,0.2635,0.2642,0.2907,0.2908,0.2908,0,0.2165,0.2194,0.2228,0.2287,0.2302,0.2333,0.2418,0.2461,0.2552,0.2597,0.2675,0.2716,0.2792,0.2781,0.2867,0.2855,0.2875,0.2891,0.2894,0.2834,0.2837,0.2664,0.2642,0.2917,0.2916,0.2916,0.2915,0,0.2131,0.2185,0.2214,0.2231,0.2303,0.2342,0.2391,0.2485,0.2536,0.2638,0.2679,0.277,0.282,0.2862,0.2901,0.2896,0.2961,0.2966,0.291,0.2905,0.2755,0.2735,0.3001,0.3001,0.3001,0.3001,0.3,0,0.2111,0.2133,0.2205,0.2215,0.2268,0.2332,0.24,0.2469,0.2569,0.2626,0.2707,0.2764,0.284,0.2888,0.2912,0.2925,0.2982,0.2901,0.2909,0.274,0.2719,0.2977,0.2973,0.3002,0.3002,0.3001,0.3001,0,0.2062,0.2106,0.2142,0.222,0.2249,0.2291,0.2393,0.2439,0.2547,0.2624,0.2655,0.277,0.2835,0.2887,0.2955,0.2935,0.2957,0.2944,0.2725,0.2705,0.2869,0.2864,0.2882,0.2879,0.2877,0.2875,0.2874,0,0.204,0.2054,0.2126,0.2149,0.2187,0.2257,0.2298,0.2418,0.2473,0.2621,0.2646,0.2743,0.2785,0.285,0.2846,0.2859,0.2925,0.2663,0.2608,0.2851,0.2858,0.2856,0.2854,0.2401,0.2396,0.2392,0.2388,0,0.1997,0.2024,0.2047,0.2091,0.2136,0.2183,0.2262,0.2298,0.243,0.2487,0.2568,0.2614,0.2692,0.2618,0.264,0.2624,0.2643,0.2576,0.2901,0.246,0.24,0.2406,0.242,0.2351,0.2354,0.2357,0.2359,0.2361,0.196,0.1964,0.199,0.2027,0.207,0.2102,0.2098,0.217,0.2223,0.2282,0.2407,0.2404,0.2446,0.2379,0.2317,0.2276,0.2455,0.2346,0.2359,0.2376,0.2312,0.2251,0.2161,0.2164,0.2166,0.2168,0.217,0,0.1899,0.1909,0.1928,0.1951,0.1942,0.2011,0.2052,0.2013,0.2005,0.21,0.2132,0.199,0.1962,0.2013,0.1901,0.1896,0.1873,0.1814,0.1773,0.1813,0.1848,0.1755,0.1458,0.1456,0.1453,0.1451,0,0,0.1868,0.1845,0.1848,0.1814,0.1831,0.179,0.1787,0.1745,0.1771,0.1728,0.173,0.1873,0.1965,0.1683,0.1651,0.1536,0.1656,0.1476,0.2056,0.2049,0.208,0.2173,0.2078,0,0,0,0,0]},{"header":{"parameterUnit":"m.s-1","parameterCategory":2,"la1":30.2991,"la2":30.254,"lo1":-89.0895,"lo2":-89.0444,"dy":0.0017,"dx":0.0017,"nx":28,"ny":28,"refTime":"2024-03-10T03:00:00:Z","depth":"2","parameterNumber":3,"parameterNumberName":"V-component_of_CURRENTS"},"data":[0,0,0,0,0,0,0,0,0,0,0,0,0,0,0,0,0,0,0,0,0,0,0,0,0,0,0,0,0,0,0,0,0,0,0,0,0,0,0,0,0,0,0,0,0,0,0,0,0,0,0,0,0,0,0,0,0,0,0.0142,0.0142,0,0.0112,0.0111,0.0111,0.009,0.009,0.009,0.009,-0.0104,-0.0109,-0.0114,0,0,0,0,0,0,0,0,0,0,0,0,0,0.0177,0.0176,0.0142,0.0142,0.0142,0.0112,0.0111,0.0111,0.009,0.009,0.009,0.0089,-0.0103,-0.0109,-0.0115,0,0,0,0,0,0,0,0,0,0,0,0,0,0.0156,0.0176,0.0143,0.0127,0.0125,0.0112,0.0111,0.0111,0.009,0.009,0.009,0.0089,-0.0101,-0.0108,-0.0115,-0.0155,0,0,-0.0138,-0.0141,0,0,0,0,0,0,0,0,0.0157,0.0155,0.013,0.0128,0.0126,0.0104,0.0052,0.0013,0.009,0.0104,0.009,0.0089,-0.005,-0.0062,-0.0064,-0.0164,-0.0173,-0.0139,-0.0143,-0.0147,-0.0149,0,0,0,0,0,0,0,0.0159,0.0156,0.0131,0.0129,0.0127,0.0119,0.0116,0.0046,0.0027,0.0103,0.0101,0.0097,-0.0052,-0.0056,-0.0069,-0.0176,-0.0139,-0.0145,-0.015,-0.0153,-0.0335,-0.0335,0,0,0,0,0,0,0.0162,0.0157,0.0132,0.013,0.0141,0.0119,0.0116,0.0112,0.0031,0.0019,0.0097,0.0096,-0.0043,-0.006,-0.0076,-0.0109,-0.0147,-0.0154,-0.0158,-0.0335,-0.0335,-0.0335,0,0,0,0,0,0,0.0163,0.016,0.0133,0.0142,0.0138,0.0119,0.0115,0.0111,0.0109,0.0028,0.0014,0.0098,-0.0044,-0.0066,-0.0104,-0.0118,-0.0157,-0.0164,-0.0334,-0.0335,-0.0335,-0.019,0,0,0,0,0,0,0.0164,0.016,0.016,0.0143,0.0138,0.0133,0.0115,0.0111,0.0106,0.0105,0.0024,0.0006,-0.0046,-0.0092,-0.0111,-0.0129,-0.017,-0.0334,-0.0334,-0.0335,-0.0194,-0.0185,-0.0178,0,0,0,0,0,0.0165,0.0169,0.016,0.0157,0.0138,0.0133,0.0131,0.0116,0.0107,0.0111,0.0078,0.0009,-0.0113,-0.0097,-0.012,-0.014,-0.0333,-0.0334,-0.0335,-0.0198,-0.0187,-0.0178,0,0,0,0,0,0,0.0185,0.0166,0.0157,0.0155,0.0147,0.013,0.0131,0.012,0.0099,0.0095,0.0024,0.0005,-0.0035,-0.0111,-0.0092,-0.0199,-0.0244,-0.025,-0.0132,-0.0123,-0.0115,-0.0084,-0.0176,0,0,0,0,0,0.0189,0.0186,0.0169,0.0169,0.0166,0.0149,0.0145,0.0137,0.0115,0.0107,0.0054,-0.0012,-0.0059,-0.0104,-0.0157,-0.0215,-0.0257,-0.0253,-0.0245,-0.0237,-0.023,-0.0273,-0.0267,-0.0338,-0.0338,-0.0338,0,0,0.0196,0.0186,0.0184,0.0173,0.0165,0.017,0.0147,0.0146,0.0152,0.0083,0.007,0.0024,-0.0061,-0.0101,-0.0134,-0.0169,-0.0237,-0.0238,-0.023,-0.0228,-0.0273,-0.0266,-0.0259,-0.0339,-0.0339,-0.0338,0,0,0.0214,0.0202,0.0207,0.0205,0.0196,0.0188,0.019,0.0173,0.0168,0.0157,0.0114,0.008,-0.0016,-0.0059,-0.0099,-0.0089,-0.0175,-0.0139,-0.0092,-0.0132,-0.0126,-0.012,-0.0143,-0.0142,-0.0155,-0.0154,-0.0154,0,0.0223,0.0228,0.021,0.0218,0.0223,0.0199,0.0215,0.0207,0.0183,0.0181,0.0164,0.0076,0.001,-0.003,-0.002,-0.0068,-0.0102,-0.0111,-0.0116,-0.0112,-0.011,-0.0135,-0.0135,-0.0147,-0.0148,-0.0149,-0.015,0,0.0247,0.0253,0.0259,0.0262,0.0266,0.0276,0.0265,0.0265,0.0254,0.0242,0.0218,0.0158,0.01,0.0066,0.003,0.0,-0.0031,-0.0077,-0.0126,-0.0092,-0.0123,-0.0125,-0.0137,-0.014,-0.0142,-0.0144,0,0,0.0266,0.0274,0.0277,0.0293,0.0292,0.0302,0.0314,0.0319,0.0334,0.0301,0.0311,0.0247,0.0215,0.0168,0.0105,0.0066,0.0072,0.0006,0.0,0.0011,-0.0005,-0.0026,-0.0031,0.0026,0.0026,0.0026,-0.0025,0,0.0292,0.0321,0.0318,0.0355,0.0373,0.0365,0.0383,0.0385,0.0379,0.038,0.0324,0.0304,0.0248,0.0227,0.0186,0.01,0.0068,0.0091,-0.0065,-0.007,-0.0069,-0.0034,-0.0007,-0.0052,-0.0028,-0.0029,-0.0029,0,0.0321,0.0338,0.0376,0.0411,0.042,0.0441,0.0473,0.0486,0.0478,0.0473,0.0445,0.0397,0.0345,0.0293,0.0178,0.0193,0.011,0.0045,0.004,-0.0033,-0.0095,-0.0091,-0.0057,-0.0033,-0.0033,-0.0033,-0.0032,0,0.0353,0.0385,0.042,0.0431,0.0461,0.0486,0.0504,0.0515,0.054,0.0529,0.0539,0.0468,0.0438,0.0329,0.02,0.0184,0.0079,0.0029,-0.0063,-0.0065,-0.0101,-0.0107,-0.0044,-0.0044,-0.0044,-0.0044,-0.0043,0,0.0388,0.0419,0.0441,0.0464,0.0521,0.0528,0.0587,0.0596,0.0617,0.0659,0.0586,0.0596,0.0445,0.0363,0.0234,0.0091,0.0099,-0.0038,-0.0078,-0.005,-0.005,-0.0094,-0.0099,-0.0046,-0.0045,-0.0045,-0.0044,0,0.042,0.0431,0.0479,0.0519,0.0539,0.0581,0.0647,0.0689,0.0697,0.0749,0.0747,0.0692,0.0587,0.0431,0.0261,0.0141,-0.0003,-0.006,-0.0004,-0.0036,-0.0127,-0.0124,-0.0166,-0.0167,-0.0168,-0.0168,-0.0169,0,0.0438,0.0464,0.0522,0.056,0.0583,0.0646,0.0695,0.0729,0.0781,0.0815,0.0845,0.0765,0.0723,0.0471,0.0246,0.0024,-0.0008,-0.0098,-0.013,-0.0103,-0.0139,-0.0134,-0.0131,-0.0115,-0.0115,-0.0115,-0.0116,0,0.0476,0.0495,0.0536,0.0612,0.0672,0.0743,0.0816,0.0872,0.0923,0.0962,0.1002,0.0969,0.074,0.0521,0.0218,0.0072,-0.0062,-0.011,-0.0099,-0.0089,-0.006,-0.0094,-0.0091,-0.0117,-0.0117,-0.0117,-0.0116,-0.0116,0.0509,0.0542,0.0597,0.0672,0.0743,0.0835,0.0904,0.0983,0.1073,0.1137,0.111,0.1061,0.0823,0.0429,0.0176,-0.0084,-0.008,-0.0173,-0.017,-0.0168,-0.0153,-0.0129,-0.0194,-0.0194,-0.0194,-0.0195,-0.0195,0,0.0545,0.0584,0.0654,0.0744,0.0825,0.0859,0.0982,0.1046,0.1155,0.1205,0.1221,0.0994,0.0746,0.0469,0.0076,-0.0159,-0.0167,-0.0224,-0.0186,-0.0183,-0.018,-0.0165,-0.0209,-0.021,-0.0211,-0.0212,0,0,0.0566,0.063,0.0663,0.0796,0.0865,0.098,0.1054,0.1145,0.1206,0.1245,0.1222,0.1153,0.0826,0.0539,0.0225,0.0003,-0.0032,-0.0033,0.0006,0.0093,0.0098,-0.0123,-0.0092,0,0,0,0,0]}],[{"header":{"parameterUnit":"m.s-1","parameterCategory":2,"la1":30.2991,"la2":30.254,"lo1":-89.0895,"lo2":-89.0444,"dy":0.0017,"dx":0.0017,"nx":28,"ny":28,"refTime":"2024-03-10T03:00:00:Z","depth":"4","parameterNumber":2,"parameterNumberName":"U-component_of_CURRENTS"},"data":[0,0,0,0,0,0,0,0,0,0,0,0,0,0,0,0,0,0,0,0,0,0,0,0,0,0,0,0,0,0,0,0,0,0,0,0,0,0,0,0,0,0,0,0,0,0,0,0,0,0,0,0,0,0,0,0,0,0,0.1245,0.1245,0,0.1224,0.1224,0.1223,0.1197,0.1197,0.1197,0.1197,0.113,0.1129,0.1127,0,0,0,0,0,0,0,0,0,0,0,0,0,0.1228,0.1229,0.1245,0.1245,0.1245,0.1224,0.1224,0.1223,0.1197,0.1197,0.1197,0.1197,0.1131,0.1129,0.1127,0,0,0,0,0,0,0,0,0,0,0,0,0,0.1222,0.1229,0.1245,0.1232,0.1231,0.1224,0.1224,0.1223,0.1198,0.1197,0.1197,0.1197,0.1132,0.1129,0.1127,0.1116,0,0,0.1119,0.1118,0,0,0,0,0,0,0,0,0.1222,0.1222,0.1234,0.1233,0.1232,0.1216,0.1193,0.1186,0.1198,0.1207,0.1197,0.1197,0.1157,0.1152,0.1145,0.1113,0.111,0.1119,0.1118,0.1117,0.1116,0,0,0,0,0,0,0,0.1223,0.1223,0.1234,0.1234,0.1233,0.1215,0.1214,0.1192,0.1181,0.1206,0.1205,0.1207,0.1155,0.1148,0.1144,0.1109,0.1119,0.1117,0.1115,0.1115,0.1108,0.1109,0,0,0,0,0,0,0.1233,0.1223,0.1235,0.1234,0.1229,0.1216,0.1214,0.1219,0.1182,0.1177,0.1207,0.1206,0.1152,0.1146,0.1141,0.1163,0.1117,0.1114,0.1113,0.1107,0.1109,0.111,0,0,0,0,0,0,0.1233,0.1234,0.1236,0.123,0.1229,0.1217,0.1222,0.1219,0.1235,0.1184,0.1177,0.1231,0.1152,0.1145,0.1122,0.1159,0.1113,0.1111,0.1105,0.1107,0.1109,0.1183,0,0,0,0,0,0,0.1232,0.1234,0.1251,0.1231,0.123,0.1234,0.1222,0.1218,0.1237,0.1235,0.1201,0.1193,0.1151,0.1125,0.1119,0.1154,0.1109,0.1104,0.1106,0.1109,0.1179,0.1187,0.1194,0,0,0,0,0,0.1232,0.1244,0.1252,0.1254,0.125,0.1234,0.1232,0.122,0.1239,0.1238,0.1213,0.1195,0.1138,0.1123,0.1116,0.1152,0.1103,0.1106,0.1108,0.1175,0.1185,0.1194,0,0,0,0,0,0,0.1244,0.1242,0.125,0.1263,0.1255,0.1231,0.124,0.1243,0.1228,0.1236,0.1195,0.1184,0.1183,0.1157,0.1143,0.1159,0.1125,0.1126,0.1179,0.1188,0.1195,0.1212,0.1107,0,0,0,0,0,0.1258,0.1268,0.126,0.1272,0.1276,0.1271,0.1273,0.1266,0.1248,0.1244,0.1229,0.1211,0.1187,0.1179,0.1152,0.1154,0.1155,0.1179,0.1186,0.1193,0.1203,0.1196,0.1204,0.112,0.112,0.1119,0,0,0.1269,0.1269,0.1277,0.1276,0.1278,0.128,0.1271,0.1279,0.1289,0.1238,0.1259,0.1236,0.1193,0.1189,0.1189,0.1173,0.1231,0.1197,0.1203,0.1209,0.12,0.1208,0.1216,0.1122,0.1121,0.1121,0,0,0.128,0.1299,0.1307,0.1305,0.131,0.1305,0.1318,0.1318,0.1328,0.1335,0.1305,0.1302,0.1282,0.1253,0.1235,0.1274,0.1269,0.1282,0.1334,0.1328,0.1335,0.134,0.1409,0.142,0.1288,0.1288,0.1288,0,0.1297,0.1303,0.1306,0.131,0.1314,0.1325,0.1331,0.1342,0.1337,0.1346,0.1353,0.1345,0.1313,0.13,0.1313,0.1294,0.131,0.1299,0.1338,0.1343,0.1348,0.1416,0.1427,0.1292,0.1291,0.1291,0.129,0,0.1301,0.1317,0.1324,0.1336,0.1339,0.1347,0.1359,0.138,0.1412,0.1419,0.1443,0.1414,0.141,0.1408,0.137,0.1392,0.1405,0.1346,0.1314,0.1361,0.1431,0.1441,0.1297,0.1296,0.1295,0.1294,0,0,0.1311,0.1325,0.1332,0.1336,0.1354,0.135,0.1385,0.14,0.1438,0.1462,0.1506,0.1486,0.1503,0.1485,0.1459,0.1456,0.1521,0.1425,0.1423,0.1496,0.1569,0.1457,0.1458,0.146,0.1461,0.1462,0.1626,0,0.1318,0.1325,0.1334,0.135,0.1353,0.1372,0.1402,0.1422,0.1463,0.1513,0.152,0.1554,0.1525,0.1546,0.1539,0.1514,0.1543,0.1486,0.1511,0.1514,0.1407,0.1462,0.1464,0.1634,0.1636,0.1638,0.1639,0,0.1315,0.1319,0.1333,0.1351,0.1359,0.138,0.1427,0.1459,0.1521,0.1554,0.16,0.1625,0.1658,0.1621,0.1646,0.1612,0.161,0.1595,0.16,0.1469,0.1417,0.1562,0.1658,0.1656,0.1655,0.1653,0.1652,0,0.1294,0.1315,0.1327,0.1332,0.136,0.1384,0.142,0.1478,0.1508,0.1607,0.1647,0.1697,0.1734,0.1734,0.1728,0.1698,0.1749,0.1699,0.1614,0.1611,0.1631,0.1622,0.172,0.172,0.1719,0.1719,0.1718,0,0.1273,0.1285,0.1326,0.1327,0.1357,0.1391,0.1448,0.1489,0.1562,0.16,0.1685,0.1719,0.1754,0.1786,0.1776,0.1738,0.1798,0.1647,0.1629,0.1668,0.1661,0.1643,0.1631,0.1725,0.1724,0.1723,0.1721,0,0.1236,0.1265,0.1276,0.1322,0.1344,0.1373,0.1444,0.1478,0.1567,0.1626,0.1664,0.1748,0.1803,0.1841,0.1856,0.1785,0.1768,0.1736,0.185,0.1833,0.1646,0.1637,0.1694,0.1691,0.1688,0.1686,0.1684,0,0.1213,0.1218,0.1268,0.1281,0.1307,0.1361,0.1392,0.1471,0.1503,0.1619,0.163,0.1735,0.1782,0.1758,0.1786,0.1811,0.1753,0.1765,0.1643,0.1659,0.1637,0.1632,0.1627,0.168,0.168,0.1679,0.1679,0,0.1164,0.1197,0.1206,0.1234,0.1266,0.1292,0.135,0.1353,0.1446,0.1538,0.1569,0.1605,0.1664,0.1694,0.172,0.1711,0.1765,0.1738,0.1743,0.1627,0.1643,0.1623,0.1621,0.167,0.1671,0.1672,0.1672,0,0.1136,0.1129,0.115,0.1165,0.1204,0.1203,0.1242,0.127,0.1307,0.143,0.144,0.155,0.1647,0.1643,0.166,0.1656,0.162,0.1545,0.1559,0.1569,0.1439,0.1434,0.1398,0,0,0,0,0,0.1094,0.107,0.1075,0.1072,0.1111,0.1135,0.1195,0.1235,0.1328,0.1313,0.1368,0.1423,0.146,0.1516,0.1487,0.16,0.1624,0.1557,0.1543,0.1622,0.1632,0.1482,0,0,0,0,0,0,0.1056,0.1058,0.1041,0.0998,0.099,0.1014,0.1051,0.1113,0.111,0.1219,0.1253,0.1338,0.1404,0.1473,0.1464,0.1479,0.1438,0.1626,0.1622,0.1616,0.1625,0.1633,0.1483,0,0,0,0,0]},{"header":{"parameterUnit":"m.s-1","parameterCategory":2,"la1":30.2991,"la2":30.254,"lo1":-89.0895,"lo2":-89.0444,"dy":0.0017,"dx":0.0017,"nx":28,"ny":28,"refTime":"2024-03-10T03:00:00:Z","depth":"4","parameterNumber":3,"parameterNumberName":"V-component_of_CURRENTS"},"data":[0,0,0,0,0,0,0,0,0,0,0,0,0,0,0,0,0,0,0,0,0,0,0,0,0,0,0,0,0,0,0,0,0,0,0,0,0,0,0,0,0,0,0,0,0,0,0,0,0,0,0,0,0,0,0,0,0,0,0.0169,0.0169,0,0.0188,0.0189,0.0189,0.0214,0.0214,0.0214,0.0214,0.0254,0.0255,0.0256,0,0,0,0,0,0,0,0,0,0,0,0,0,0.0176,0.0176,0.0169,0.0169,0.0169,0.0188,0.0189,0.0189,0.0214,0.0214,0.0214,0.0214,0.0254,0.0255,0.0256,0,0,0,0,0,0,0,0,0,0,0,0,0,0.0185,0.0176,0.0169,0.0181,0.0182,0.0188,0.0189,0.0189,0.0214,0.0214,0.0214,0.0214,0.0253,0.0255,0.0256,0.0262,0,0,0.0261,0.0261,0,0,0,0,0,0,0,0,0.0185,0.0185,0.018,0.0181,0.0182,0.0196,0.0205,0.0214,0.0214,0.0206,0.0214,0.0214,0.0234,0.0237,0.0245,0.0264,0.0266,0.0261,0.0262,0.0262,0.0263,0,0,0,0,0,0,0,0.0184,0.0185,0.018,0.018,0.0181,0.0193,0.0194,0.0207,0.0222,0.0206,0.0207,0.0204,0.0235,0.0244,0.0246,0.0266,0.0261,0.0262,0.0263,0.0263,0.0281,0.0281,0,0,0,0,0,0,0.0173,0.0184,0.018,0.018,0.018,0.0192,0.0194,0.0194,0.0221,0.0224,0.0204,0.0205,0.0241,0.0244,0.0248,0.027,0.0262,0.0264,0.0264,0.0281,0.0281,0.0281,0,0,0,0,0,0,0.0174,0.0173,0.0179,0.018,0.0181,0.0191,0.0191,0.0194,0.0207,0.0218,0.0223,0.0213,0.0241,0.0246,0.0275,0.0272,0.0264,0.0266,0.0282,0.0281,0.0281,0.0307,0,0,0,0,0,0,0.0174,0.0173,0.0175,0.0179,0.018,0.0189,0.0191,0.0194,0.0202,0.0205,0.0228,0.0232,0.0242,0.0273,0.0277,0.0273,0.0267,0.0282,0.0282,0.0281,0.0307,0.0307,0.0308,0,0,0,0,0,0.0174,0.0177,0.0175,0.0175,0.0181,0.0189,0.0192,0.0202,0.0203,0.0213,0.0234,0.0231,0.0269,0.0275,0.0279,0.0276,0.0283,0.0282,0.0281,0.0306,0.0307,0.0308,0,0,0,0,0,0,0.0185,0.018,0.0178,0.018,0.0185,0.0192,0.0201,0.0203,0.0227,0.0233,0.0244,0.025,0.027,0.0267,0.0273,0.0274,0.0268,0.0268,0.0285,0.0286,0.0287,0.0292,0.0268,0,0,0,0,0,0.0185,0.0186,0.0184,0.0188,0.0189,0.0195,0.02,0.0206,0.0222,0.0232,0.0245,0.0255,0.0267,0.0275,0.0285,0.0297,0.0269,0.0289,0.029,0.0291,0.0295,0.0243,0.0239,0.0278,0.0278,0.0278,0,0,0.019,0.0187,0.0188,0.019,0.0195,0.0206,0.02,0.0211,0.0225,0.0233,0.0261,0.0265,0.0271,0.0287,0.0292,0.0287,0.0264,0.029,0.0291,0.0294,0.0242,0.0238,0.0234,0.0277,0.0277,0.0277,0,0,0.0201,0.0198,0.0203,0.0209,0.0213,0.0218,0.0221,0.0229,0.0239,0.0263,0.0267,0.0273,0.0293,0.0294,0.0298,0.0305,0.0273,0.0297,0.0306,0.0256,0.0252,0.0249,0.0208,0.0201,0.0294,0.0294,0.0294,0,0.0207,0.0214,0.0208,0.0217,0.0227,0.0224,0.0241,0.0249,0.0268,0.0276,0.0275,0.0288,0.0295,0.0304,0.0309,0.0308,0.0275,0.0308,0.0257,0.0253,0.0249,0.0208,0.02,0.0295,0.0295,0.0295,0.0295,0,0.0222,0.0232,0.0238,0.0249,0.026,0.0274,0.028,0.0293,0.0298,0.0301,0.0311,0.0313,0.0318,0.031,0.032,0.0295,0.028,0.0267,0.0258,0.0247,0.0204,0.0195,0.0297,0.0296,0.0296,0.0295,0,0,0.0228,0.0245,0.0249,0.0265,0.028,0.0293,0.0314,0.0331,0.0347,0.0342,0.0351,0.0356,0.0342,0.0343,0.0335,0.0294,0.0243,0.0273,0.027,0.0238,0.0132,0.0133,0.0122,0.0217,0.0216,0.0215,0.0114,0,0.0245,0.0271,0.0276,0.0313,0.033,0.0339,0.0363,0.0377,0.0383,0.0389,0.0365,0.0374,0.0357,0.036,0.0315,0.0267,0.022,0.0272,0.0143,0.0139,0.0145,0.0112,0.021,0.0107,0.0105,0.0103,0.0102,0,0.0262,0.028,0.0314,0.0353,0.0362,0.0386,0.0423,0.0444,0.0445,0.0447,0.043,0.0411,0.0372,0.035,0.024,0.0272,0.0207,0.0156,0.0151,0.0137,0.0123,0.0118,0.0085,0.0086,0.0087,0.0089,0.009,0,0.0277,0.031,0.0342,0.0354,0.0392,0.0417,0.0443,0.0463,0.0487,0.048,0.0485,0.0427,0.0404,0.0305,0.0214,0.0219,0.0079,0.0069,0.0004,0.0003,0.0024,0.0028,-0.0023,-0.0022,-0.0022,-0.0022,-0.0022,0,0.0296,0.0323,0.0354,0.0374,0.0424,0.0443,0.0495,0.0511,0.0529,0.0553,0.0515,0.0507,0.0389,0.0305,0.0208,0.0079,0.0067,-0.0001,-0.0027,0.0037,0.0044,0.0017,0.0023,-0.0026,-0.0025,-0.0024,-0.0023,0,0.0308,0.0325,0.0368,0.0413,0.0433,0.0472,0.0538,0.0571,0.0584,0.0608,0.0607,0.0552,0.0441,0.0319,0.016,0.0082,-0.0044,-0.0086,-0.0003,-0.0022,-0.0087,-0.0078,-0.018,-0.0181,-0.0182,-0.0182,-0.0183,0,0.0316,0.0337,0.0397,0.043,0.0455,0.0515,0.0559,0.0597,0.0631,0.0635,0.0642,0.0556,0.0502,0.0278,0.0144,-0.0054,-0.0074,-0.0141,-0.012,-0.009,-0.0106,-0.0096,-0.0087,-0.0184,-0.0184,-0.0185,-0.0185,0,0.0333,0.0355,0.0391,0.0457,0.0511,0.0572,0.0634,0.0659,0.0696,0.0702,0.0669,0.0567,0.0442,0.0276,0.0128,-0.0012,-0.0101,-0.015,-0.0149,-0.013,-0.0096,-0.0109,-0.0099,-0.0187,-0.0187,-0.0187,-0.0187,0,0.035,0.0375,0.0424,0.0483,0.0551,0.0611,0.0644,0.0679,0.071,0.0711,0.0693,0.0571,0.0499,0.0297,0.0156,0.0021,-0.0015,-0.0055,-0.006,-0.0059,0.0011,0.0074,0.0004,0,0,0,0,0,0.0362,0.039,0.0446,0.0512,0.0579,0.0619,0.0686,0.0712,0.0738,0.0721,0.0712,0.0599,0.0399,0.0313,0.0176,0.013,-0.0046,-0.0037,-0.0096,-0.0203,-0.0199,-0.0137,0,0,0,0,0,0,0.037,0.0419,0.0443,0.0525,0.0572,0.0649,0.0693,0.0711,0.0705,0.0706,0.0603,0.0561,0.0364,0.0474,0.017,0.013,0.0073,-0.0127,-0.0131,-0.0204,-0.0202,-0.0199,-0.0134,0,0,0,0,0]}]]